Location: Peebles
(55.6412°N, 3.1714°W)
Time: 01:34:01
(UTC+01:00)

FENGYUN 1C DEB - Pass Details

Date: 11 July 2022
Orbit: 580 x 1160 km, 99.3° (Epoch: 11 August)

Event Time Altitude Azimuth Distance (km) Brightness Sun altitude
Exits shadow 23:35:59 - 129° (SE) 2,948 ? -9.4°
Reaches altitude 10° 23:36:28 10° 128° (SE) 2,777 ? -9.4°
Maximum altitude 23:42:29 46° 58° (ENE) 1,432 ? -9.7°
Drops below altitude 10° 23:49:06 10° 348° (NNW) 3,054 ? -10.1°
Sets 23:51:52 0° 343° (NNW) 4,041 ? -10.2°
